www.pogodaiklimat.ru

Погода и климат >> Архив погоды >> Узбекистан >> Пап


ПОГОДА в Папе

  • Прогноз погоды в Папе
  • Монитор погоды в Папе

АРХИВ ПОГОДЫ в Папе

Время (UTC), дата Ветер
(напр.,м/с)
 
Видим.   Явления Облачность Т
(С)
Тd
(С)
f
(%)
Тe
(С)
Тes
(С)
Комфортность P
(гПа)
Po
(гПа)
Тmin
(С)
Tmax
(С)
R
(мм)
R24
(мм)
S
(см)
03 13.09 штиль 0 10 км 3/0
[Ci]
+16.1 +9.5 65 +16 +20 1016.8 965.4
06 13.09 штиль 0 10 км 3/0
[Ci]
+23.7 +8.1 37 +24 +40 комфорт 1015.3 965.4 +14.2
09 13.09 штиль 0 10 км 3/0
[Ci]
+27.8 +8.1 29 +28 +41 жарко 1014.0 964.8
12 13.09 штиль 0 10 км 3/0
[Ci]
+27.4 +7.1 28 +27 +29 жарко 1012.6 963.4
15 13.09 штиль 0 10 км 4/0
[Ci]
+19.4 +11.9 62 +20 +20 1014.1 963.6 +29.2
18 13.09 С 1 10 км 6/0
[Ci]
+18.0 +9.3 57 +19 +19 1015.0 964.1 +29.2
21 13.09 штиль 0 10 км 8/0
[Ci]
+16.3 +9.7 65 +16 +16 1015.1 964.0
00 14.09 штиль 0 10 км 6/0
[Ci]
+16.0 +8.4 61 +16 +16 1015.4 964.2
03 14.09 штиль 0 10 км 3/0
[Ci]
+17.2 +9.4 60 +17 +21 1015.7 964.8
06 14.09 штиль 0 10 км 10/1 600 м
[Cb cap Ac trans Ci]
+25.6 +10.9 40 +27 +34 жарко 1013.7 964.2 +14.0
09 14.09 штиль 0 10 км 1/0
[Ci]
+29.7 +8.5 27 +29 +43 жарко 1011.6 962.9
12 14.09 штиль 0 10 км ясно +28.6 +8.9 29 +28 +30 жарко 1010.5 961.6
15 14.09 штиль 0 10 км 10/0
[Ac trans Ci]
+21.8 +12.5 55 +24 +24 комфорт 1011.8 961.9 +30.3
18 14.09 штиль 0 10 км 10/0
[Ac trans Ci]
+20.1 +11.9 59 +22 +22 комфорт 1011.7 961.4 +30.3
21 14.09 штиль 0 10 км 10/0
[Ac trans Ci]
+19.8 +11.3 58 +21 +21 комфорт 1011.9 961.5
00 15.09 штиль 0 10 км 10/0
[Ac trans Ci]
+17.0 +11.7 71 +17 +17 1012.6 961.8
03 15.09 штиль 0 10 км 10/6 600 м
[Cb cap Ac trans]
+19.1 +11.4 61 +20 +21 1013.3 962.9
06 15.09 штиль 0 10 км {ливн. осадки} 10/5 600 м
[Cb cap Ac trans]
+19.9 +14.2 70 +22 +25 комфорт 1015.6 965.1 +16.8
09 15.09 Ю 2 10 км 10/1 600 м
[Cb cap Ac trans Ci]
+24.6 +11.3 43 +26 +31 жарко 1014.5 964.8
12 15.09 штиль 0 10 км 10/6 600 м
[Cb cap Ac trans]
+22.9 +13.8 56 +26 +26 жарко 1015.0 965.1
15 15.09 штиль 0 10 км 10/5 600 м
[Cb cap Ac trans]
+20.4 +13.8 66 +22 +22 комфорт 1016.6 966.1 +25.2
18 15.09 ЮЗ 1 10 км 10/1 600 м
[Cb cap Ac trans Ci]
+18.2 +14.0 76 +20 +20 1017.1 966.3 +25.2 0.1
21 15.09 штиль 0 10 км 8/1 600 м
[Cb cap Ac trans Ci]
+17.4 +12.9 75 +17 +17 1017.3 966.3
00 16.09 штиль 0 10 км 4/0
[Ci]
+14.7 +11.8 83 +14 +14 1018.1 966.6
03 16.09 штиль 0 10 км ясно +17.6 +12.4 72 +18 +21 1018.7 967.6
06 16.09 В 1 10 км ясно +24.2 +10.7 43 +25 +39 комфорт 1017.2 967.3 +14.6
09 16.09 Ю 1 10 км ясно +27.6 +6.4 26 +27 +39 жарко 1015.4 966.1
12 16.09 Ю 1 10 км 10/0
[Ci]
+26.2 +7.1 30 +26 +27 жарко 1014.9 965.3
15 16.09 штиль 0 10 км 10/0
[Ci]
+19.6 +9.2 51 +20 +20 1016.1 965.5 +28.6
18 16.09 штиль 0 10 км 10/0
[Ci]
+16.6 +9.9 65 +17 +17 1017.2 966.0 +28.6
00 17.09 штиль 0 10 км ясно +13.8 +8.0 68 +14 +14 1018.8 967.0
03 17.09 штиль 0 10 км ясно +16.8 +8.9 60 +17 +20 1020.0 968.7
09 17.09 В 1 10 км ясно +27.8 +6.7 26 +27 +39 жарко 1017.8 968.4
12 17.09 СВ 1 10 км ясно +26.3 +7.8 31 +26 +28 жарко 1017.2 967.7
15 17.09 штиль 0 10 км ясно +19.1 +10.4 57 +20 +20 1018.4 967.7 +28.4
18 17.09 штиль 0 10 км ясно +17.7 +8.1 53 +18 +18 1018.4 967.3 +28.4
21 17.09 штиль 0 10 км ясно +14.7 +8.4 66 +15 +15 1018.0 966.5
00 18.09 штиль 0 10 км ясно +12.6 +8.0 74 +12 +12 1017.3 965.4
03 18.09 штиль 0 10 км ясно +16.6 +7.4 55 +17 +20 1016.6 965.4
06 18.09 Ю 1 10 км ясно +26.1 +7.6 31 +26 +39 жарко 1014.1 964.6 +12.5
09 18.09 ЮЗ 1 10 км ясно +31.5 +9.2 25 +31 +43 жарко 1011.1 962.7
12 18.09 Ю 1 10 км ясно +28.8 +8.6 28 +28 +30 жарко 1010.6 961.7
15 18.09 штиль 0 10 км ясно +19.9 +11.2 57 +21 +21 комфорт 1012.5 962.1 +31.9
18 18.09 штиль 0 10 км 3/0
[Ci]
+18.3 +9.2 55 +19 +19 1013.5 962.9 +31.9
21 18.09 штиль 0 10 км 8/0
[Ci]
+17.4 +8.0 54 +17 +17 1014.9 964.0
00 19.09 штиль 0 10 км ясно +16.6 +6.2 50 +17 +17 1016.0 964.9
03 19.09 штиль 0 10 км 10/0
[Ac trans Ci]
+18.3 +9.8 58 +19 +21 1017.0 966.2

 

Местоположение метеостанции Пап (Намаганская область, Узбекистан): широта 40.88 долгота 71.12 высота над уровнем моря 442 м.

В архиве по умолчанию представлена погода в Папе за последнюю неделю. Архивные данные за месяц целиком и за предыдущие месяцы, начиная с января 2011 года, Вы можете получить, выбрав интересующий диапазон дат из раскрывающегося списка и нажав кнопку "Ввод!".


*Определитесь, кто Вы:
робот инопланетянин человек

Внимание! Время в таблицах - всемирное. Для получения местного времени необходимо прибавить поправку, которая равна 5 ч.

Смотрите также архив погоды в соседних городах и на ближайших метеорологических станциях:

Погода в Коканде (Ферганская область, Узбекистан) (39 км)
Погода в Намангане (Намаганская область, Узбекистан) (40 км)
Погода в Юбилейной (Андижанская область, Узбекистан) (41 км)
Погода в Камчике (Ташкентская область, Узбекистан) (58 км)
Погода в Бозе (Андижанская область, Узбекистан) (71 км)
Погода в Фергане (Ферганская область, Узбекистан) (78 км)
Погода в Ангрене (Ташкентская область, Узбекистан) (80 км)
Погода в Куве (Ферганская область, Узбекистан) (89 км)
Погода в Пача-Ате (Джалал-Абадская область, Киргизия) (90 км)
Погода в Дуканте (Ташкентская область, Узбекистан) (93 км)

Пояснения к столбцам:

Ветер - указаны скорость ветра в м/с - средняя за 10 мин, порывы в срок и между сроками (в фигурных скобках) и направление, откуда дует ветер: С - северный, СВ - северо-восточный, В - восточный, ЮВ - юго-восточный, Ю - южный, ЮЗ - юго-западный, З - западный, СЗ - северо-западный.
Видимость - горизонтальная дальность видимости в метрах или километрах. При видимости от 1 до 10 км при отсутствии осадков обычно наблюдается дымка, при ухудшении видимости до 1 км и менее - туман. В сухую погоду видимость может ухудшаться дымом, пылью или мглою.
Явления - указаны атмосферные явления, наблюдавшиеся в срок или в последний час перед сроком; фигурными скобками обозначены явления, наблюдавшиеся между сроками (за 1-3 часа до срока); квадратными скобками обозначены град или гололедные отложения с указанием их диаметра в мм.
Облачность - указаны через наклонную черту общая и нижняя облачность в баллах и высота нижней границы облаков в метрах; квадратными скобками обозначены формы облаков: Ci - перистые, Cs - перисто-слоистые, Cc - перисто-кучевые, Ac - высококучевые, As - высокослоистые, Sc - слоисто-кучевые, Ns - слоисто-дождевые, Cu - кучевые, Cb - кучево-дождевые. Подробнее классификацию облаков см. в Атласе облаков (PDF).
T - Температура воздуха - температура, измеренная на высоте 2 м над землей.
Td - Температура точки росы - температура, при понижении до которой содержащийся в воздухе водяной пар достигнет насыщения.
f - Относительная влажность воздуха - влажноcть воздуха, измеренная на высоте 2 м над землей.
Te - Эффективная температура - температура, которую ощущает одетый по сезону человек в тени. Характеристика душности погоды. При расчете учитывается влияние влажности воздуха и скорости ветра на теплоощущения человека.
Tes - Эффективная температура на солнце - температура, которую ощущает человек, с поправкой на солнечный нагрев. Характеристика знойности погоды. Зависит от высоты солнца над горизонтом, облачности и скорости ветра. Ночью, в пасмурную погоду, а также при ветре 12 м/с и более поправка равна нулю.
P - Атмосферное давление - приведенное к уровню моря атмосферное давление.
Po - Атмосферное давление - измеренное на уровне метеостанции атмосферное давление.
Tmin - Минимальная температура - минимум температуры воздуха на высоте 2 м над землей.
Tmax - Максимальная температура - максимум температуры воздуха на высоте 2 м над землей.
R - Количество осадков - Количество выпавших осадков за период времени, мм. При наведении курсора мыши на число - период времени, за который выпало указанное количество осадков.
R24 - Количество осадков - Количество выпавших осадков за 24 часа, мм.
S - Снежный покров - Высота снежного покрова, см. При наведении курсора мыши на число - состояние снежного покрова и степень покрытия местности в баллах.